Location: Bastogne Gables
(35.1554°N, 78.9900°W)
Time: 03:23:59
(UTC+00:00)

YAOGAN 1 - Pass Details

Date: 29 October 2020
Orbit: 618 x 620 km, 97.9° (Epoch: 26 November)

Event Time Altitude Azimuth Distance (km) Brightness Sun altitude
Rises 23:39:48 0° 153° (SSE) 2,882 5.8 -16.0°
Reaches altitude 10° 23:42:02 10° 148° (SSE) 1,980 4.9 -16.5°
Maximum altitude 23:46:10 48° 74° (ENE) 811 2.7 -17.3°
Drops below altitude 10° 23:50:20 10° 0° (N) 1,992 5.1 -18.2°
Sets 23:52:35 0° 355° (N) 2,902 6.0 -18.6°
